Weather History for Trabzon, Turkey

Change the Weather History Date:

Wednesday, February 6, 2013

  Actual Average Record
Temperature  
Mean Temperature 56 °F -  
Max Temperature 68 °F 49 °F 69 °F (2003)
Min Temperature 44 °F 39 °F 35 °F (2008)
Degree Days  
Heating Degree Days 9    
Growing Degree Days 6 (Base 50)    
Moisture  
Dew Point 40 °F    
Average Humidity 66    
Maximum Humidity 94    
Minimum Humidity 18    
Precipitation  
Precipitation 0.00 in - - ()
Sea Level Pressure  
Sea Level Pressure 29.88 in    
Wind  
Wind Speed 6 mph ()    
Max Wind Speed 30 mph    
Max Gust Speed 46 mph    
Visibility 6.5 miles    
Events      
Averages and records for this station are not official NWS values.
T = Trace of Precipitation, MM = Missing Value Source: Averaged Metar Reports

Daily Weather History Graph

Daily Weather History Graph

Search for Another Location

Airport:

Trip Planner

Search our weather history database for the weather conditions in past years. The results will help you decide how hot, cold, wet, or windy it might be!

Date:

Astronomy

Feb. 06, 2013 Rise Set
Actual Time 6:26 AM EET 4:44 PM EET
Civil Twilight 5:57 AM EET 5:12 PM EET
Nautical Twilight 5:24 AM EET 5:45 PM EET
Astronomical Twilight 4:52 AM EET 6:17 PM EET
Moon 2:49 AM EET (2/6) 12:38 PM EET (2/6)
Length of Visible Light 11h 15m
Length of Day
10h 17m
Waning Crescent, 20% of the Moon is Illuminated
Feb 6
Waning Crescent
Feb 10
New
Feb 17
First Quarter
Feb 25
Full
Mar 4
Last Quarter

Hourly Weather History & Observations

Time (EET) Temp. Windchill Dew Point Humidity Pressure Visibility Wind Dir Wind Speed Gust Speed Precip Events Conditions
12:20 AM 48.2 °F - 42.8 °F 82% 30.04 in 6.2 mi SSE 6.9 mph - N/A   Scattered Clouds
12:50 AM 46.4 °F - 41.0 °F 81% 30.04 in 6.2 mi Calm Calm - N/A   Scattered Clouds
1:20 AM 44.6 °F - 41.0 °F 87% 30.01 in 6.2 mi Calm Calm - N/A   Scattered Clouds
1:50 AM 44.6 °F - 41.0 °F 87% 30.01 in 6.2 mi Calm Calm - N/A   Scattered Clouds
2:00 AM 45 °F - 41 °F 82% 30.01 in 12 mi Calm Calm - -   Partly Cloudy
2:20 AM 46.4 °F - 41.0 °F 81% 29.98 in 6.2 mi Variable 2.3 mph - N/A   Scattered Clouds
2:50 AM 44.6 °F 43.1 °F 41.0 °F 87% 29.98 in 6.2 mi SSW 3.5 mph - N/A   Scattered Clouds
3:20 AM 44.6 °F - 41.0 °F 87% 29.98 in 6.2 mi Variable 1.2 mph - N/A   Scattered Clouds
3:50 AM 44.6 °F - 41.0 °F 87% 29.98 in 6.2 mi South 1.2 mph - N/A   Scattered Clouds
4:20 AM 46.4 °F 45.2 °F 41.0 °F 81% 29.95 in 6.2 mi SE 3.5 mph - N/A   Scattered Clouds
4:50 AM 46.4 °F - 42.8 °F 87% 29.95 in 6.2 mi Variable 2.3 mph - N/A   Scattered Clouds
5:20 AM 46.4 °F - 42.8 °F 87% 29.95 in 6.2 mi Calm Calm - N/A   Scattered Clouds
5:50 AM 46.4 °F - 42.8 °F 87% 29.95 in 6.2 mi Calm Calm - N/A   Scattered Clouds
6:20 AM 46.4 °F - 41.0 °F 81% 29.95 in 6.2 mi Variable 1.2 mph - N/A   Scattered Clouds
6:50 AM 44.6 °F - 41.0 °F 87% 29.95 in 6.2 mi Calm Calm - N/A   Mostly Cloudy
7:20 AM 46.4 °F - 41.0 °F 81% 29.95 in 6.2 mi Calm Calm - N/A   Mostly Cloudy
7:50 AM 46.4 °F 45.2 °F 41.0 °F 81% 29.92 in 6.2 mi NE 3.5 mph - N/A   Mostly Cloudy
8:00 AM 47 °F - 41 °F 73% 29.94 in 6 mi NE 3.5 mph - -   Partly Cloudy
8:20 AM 48.2 °F - 42.8 °F 82% 29.92 in 6.2 mi NW 1.2 mph - N/A   Mostly Cloudy
8:50 AM 48.2 °F - 42.8 °F 82% 29.92 in 6.2 mi East 4.6 mph - N/A   Mostly Cloudy
9:20 AM 48.2 °F - 44.6 °F 87% 29.92 in 6.2 mi East 5.8 mph - N/A   Mostly Cloudy
9:50 AM 48.2 °F - 44.6 °F 87% 29.92 in 6.2 mi East 4.6 mph - N/A   Mostly Cloudy
10:20 AM 48.2 °F - 44.6 °F 87% 29.89 in 6.2 mi ENE 4.6 mph - N/A   Mostly Cloudy
10:50 AM 48.2 °F - 46.4 °F 93% 29.89 in 6.2 mi Variable 1.2 mph - N/A   Mostly Cloudy
11:20 AM 50.0 °F - 46.4 °F 87% 29.86 in 6.2 mi NE 4.6 mph - N/A   Mostly Cloudy
11:50 AM 48.2 °F - 46.4 °F 93% 29.86 in 6.2 mi ENE 5.8 mph - N/A   Mostly Cloudy
12:20 PM 48.2 °F - 46.4 °F 93% 29.86 in 6.2 mi East 5.8 mph - N/A   Mostly Cloudy
12:50 PM 48.2 °F - 46.4 °F 93% 29.83 in 6.2 mi East 6.9 mph - N/A   Mostly Cloudy
1:20 PM 48.2 °F - 46.4 °F 93% 29.83 in 6.2 mi East 8.1 mph - N/A   Mostly Cloudy
1:50 PM 50.0 °F - 48.2 °F 94% 29.83 in 6.2 mi ESE 6.9 mph - N/A   Mostly Cloudy
2:00 PM 49 °F - 47 °F 92% 29.84 in 12 mi ESE 6.9 mph - -   Partly Cloudy
2:20 PM 50.0 °F - 48.2 °F 94% 29.83 in 6.2 mi East 4.6 mph - N/A   Mostly Cloudy
2:50 PM 50.0 °F - 48.2 °F 94% 29.83 in 6.2 mi East 6.9 mph - N/A   Mostly Cloudy
3:20 PM 50.0 °F - 46.4 °F 87% 29.80 in 6.2 mi East 6.9 mph - N/A   Mostly Cloudy
3:50 PM 64.4 °F - 41.0 °F 42% 29.80 in 6.2 mi South 13.8 mph - N/A   Mostly Cloudy
4:20 PM 68.0 °F - 32.0 °F 26% 29.80 in 6.2 mi SSW 11.5 mph - N/A   Mostly Cloudy
4:50 PM 68.0 °F - 32.0 °F 26% 29.80 in 6.2 mi South 13.8 mph - N/A   Mostly Cloudy
5:20 PM 66.2 °F - 32.0 °F 28% 29.77 in 6.2 mi SW 25.3 mph - N/A   Mostly Cloudy
5:50 PM 66.2 °F - 32.0 °F 28% 29.77 in 6.2 mi SW 29.9 mph 46.0 mph N/A   Mostly Cloudy
6:20 PM 66.2 °F - 32.0 °F 28% 29.77 in 6.2 mi SSW 27.6 mph - N/A   Mostly Cloudy
6:50 PM 66.2 °F - 32.0 °F 28% 29.77 in 6.2 mi SW 29.9 mph 43.7 mph N/A   Mostly Cloudy
7:20 PM 66.2 °F - 32.0 °F 28% 29.77 in 6.2 mi SSW 28.8 mph - N/A   Mostly Cloudy
7:50 PM 64.4 °F - 32.0 °F 30% 29.80 in 6.2 mi SW 12.7 mph - N/A   Mostly Cloudy
8:00 PM 65 °F - 32 °F 18% 29.82 in 12 mi SW 12.7 mph - -   Mostly Cloudy
8:20 PM 66.2 °F - 32.0 °F 28% 29.80 in 6.2 mi South 13.8 mph 25.3 mph N/A   Mostly Cloudy
8:50 PM 66.2 °F - 30.2 °F 26% 29.80 in 6.2 mi SW 21.9 mph 35.7 mph N/A   Mostly Cloudy
9:20 PM 66.2 °F - 32.0 °F 28% 29.83 in 6.2 mi SSW 19.6 mph 32.2 mph N/A   Mostly Cloudy
9:50 PM 66.2 °F - 30.2 °F 26% 29.80 in 6.2 mi SSW 19.6 mph - N/A   Mostly Cloudy
10:20 PM 66.2 °F - 30.2 °F 26% 29.80 in 6.2 mi SSW 18.4 mph 29.9 mph N/A   Mostly Cloudy
10:50 PM 64.4 °F - 30.2 °F 28% 29.80 in 6.2 mi SSW 20.7 mph 32.2 mph N/A   Mostly Cloudy
11:20 PM 64.4 °F - 32.0 °F 30% 29.80 in 6.2 mi SSW 23.0 mph - N/A   Mostly Cloudy
11:50 PM 64.4 °F - 32.0 °F 30% 29.80 in 6.2 mi SSW 20.7 mph - N/A   Mostly Cloudy